Wind_Speed
7 8 9 10 11 12 12 12 12 12 12 12 12 13 13 14 14 15 16 17 18 20 22 24 26 28 31 34 36 39 41 42 43 44 44 43 43 42 40 39 39 37 35 33 31 30 29 27 26 25 24 23 22 21 18 15 14 12 11 11 8 5 9 8 6 5 6 7 9 10 11 12 15 18 21 25 27 30 33 35 37 38 38 38 38 37 37 37
8 9 10 11 12 13 14 14 14 14 14 14 14 14 14 15 15 16 16 17 18 19 21 22 24 27 29 32 35 37 40 42 43 44 44 44 44 43 42 41 40 39 37 35 33 31 30 29 28 27 26 24 24 23 20 16 14 12 10 12 11 8 8 7 5 5 5 6 8 9 11 11 13 17 20 23 26 28 31 33 35 37 38 38 38 37 36 37
9 10 11 13 14 14 15 16 16 17 16 16 16 16 16 16 17 17 17 18 19 19 20 22 24 25 27 30 33 35 38 41 43 44 44 44 44 44 43 42 42 41 39 37 35 33 32 31 30 29 28 26 26 24 23 19 15 14 11 10 10 7 6 2 4 4 4 4 6 8 10 11 12 16 19 22 25 27 29 31 33 35 37 38 38 37 36 36
10 12 13 14 15 16 17 18 18 19 19 18 18 18 18 18 18 18 19 19 20 20 21 22 23 25 26 28 31 34 36 39 41 43 44 45 45 45 44 44 44 42 41 39 37 35 34 33 32 31 30 29 28 26 25 22 18 17 13 9 9 7 5 1 3 3 4 4 4 6 8 10 12 14 18 20 23 25 27 29 31 33 35 36 38 38 36 35
12 13 15 16 17 18 19 19 20 20 21 20 20 20 20 20 20 20 20 21 21 22 22 23 23 24 26 27 30 32 35 36 39 41 43 45 46 45 45 45 45 44 42 41 39 37 36 35 34 33 32 31 30 27 26 24 21 20 14 9 10 10 6 2 0 3 4 5 4 5 6 9 11 13 16 18 21 23 25 27 29 31 33 35 37 37 36 35
14 15 16 17 18 19 20 20 21 22 22 22 22 22 22 22 21 21 22 22 22 23 24 24 25 25 26 27 29 31 32 33 37 40 42 44 46 46 46 46 46 45 44 43 41 39 38 37 36 35 35 33 32 29 27 26 25 23 17 11 10 12 7 3 4 5 4 5 4 4 5 7 10 12 14 17 19 21 23 25 27 30 32 33 35 36 36 35
15 16 18 19 20 20 21 22 22 22 23 23 23 23 23 23 23 23 23 23 24 24 25 26 26 26 27 28 29 30 30 31 35 39 41 43 45 46 47 47 46 46 45 44 43 42 40 39 38 38 37 36 34 32 29 28 28 25 20 13 11 13 8 5 8 8 5 5 5 4 4 5 8 11 12 15 17 19 22 24 26 28 30 32 33 34 35 35
16 18 19 20 21 21 22 23 23 23 23 23 23 23 23 23 23 24 24 24 25 25 26 27 28 28 28 29 29 29 28 30 34 37 39 41 44 45 47 47 47 46 46 46 45 44 43 41 40 39 38 37 36 34 31 30 29 27 23 17 15 13 9 9 11 10 6 5 5 4 3 4 7 9 11 14 15 18 20 22 24 25 28 30 31 33 34 35
18 19 20 21 21 22 22 23 23 23 23 23 23 23 22 22 23 23 24 25 25 26 27 28 29 30 30 31 30 28 28 31 34 36 38 40 42 44 46 47 48 47 47 47 47 46 45 43 42 41 40 40 38 36 34 32 30 28 26 22 19 16 13 14 13 10 8 6 5 3 2 4 5 8 9 12 14 16 18 20 22 23 26 28 30 32 33 34
19 20 21 21 22 22 23 23 23 23 23 23 22 22 22 22 22 22 23 24 25 26 27 28 29 31 31 32 31 29 30 32 34 36 37 38 41 43 45 47 48 48 48 47 48 48 47 45 44 43 43 42 40 38 35 34 32 30 28 25 22 19 18 17 13 10 9 7 7 5 2 4 4 6 8 9 12 14 16 18 20 22 24 26 29 31 32 33
20 21 22 22 22 22 23 22 22 22 22 22 22 22 22 22 22 22 22 23 24 25 27 28 30 31 32 32 32 32 32 33 35 36 37 37 40 42 44 46 47 48 48 48 49 49 49 47 45 45 45 44 41 39 38 36 34 32 30 28 26 22 20 18 13 10 9 10 10 7 5 5 3 4 6 7 10 12 14 16 18 20 22 24 26 29 30 32
21 22 23 23 22 22 23 22 22 22 22 22 21 21 21 21 21 21 22 22 23 24 26 28 29 30 32 33 34 34 33 35 36 36 37 37 39 41 43 44 46 48 48 49 50 50 49 49 47 47 47 45 42 41 40 39 36 34 33 31 29 26 23 19 14 11 10 11 12 9 8 8 5 3 3 5 7 9 11 14 16 18 20 22 24 26 28 30
22 23 23 23 23 23 23 22 22 21 21 21 21 21 21 21 21 21 21 22 23 24 25 27 28 30 32 33 34 35 35 36 37 37 37 37 38 40 41 43 45 47 48 49 50 50 50 50 50 49 49 47 44 43 42 41 38 36 35 32 31 29 25 20 15 13 12 12 12 11 11 10 7 4 1 3 5 7 9 11 14 17 18 20 21 24 26 28
24 24 24 24 24 24 23 23 22 22 21 21 21 21 20 20 20 21 21 22 23 23 24 26 27 29 31 33 34 35 36 37 38 39 38 38 38 39 41 43 45 46 48 49 50 50 50 51 52 51 50 49 47 45 44 43 41 39 37 34 32 30 27 22 17 16 16 14 12 12 12 11 9 6 3 0 2 4 7 9 11 14 16 18 19 21 23 25
25 25 25 25 25 25 24 24 23 22 22 21 21 21 20 20 20 20 21 22 22 23 24 25 27 28 30 32 34 35 36 37 39 40 40 39 39 40 41 42 43 45 47 48 49 50 51 52 52 52 52 51 49 47 46 45 44 41 39 36 34 32 29 25 20 19 19 15 14 13 12 12 9 6 5 3 1 2 5 7 9 11 14 16 18 19 20 23
27 27 26 26 26 26 26 25 24 23 22 22 22 21 21 20 20 20 20 21 22 23 24 25 26 27 30 32 33 34 36 37 39 41 41 41 41 41 41 41 42 44 46 48 49 49 51 52 53 53 53 53 51 49 48 47 45 43 41 39 36 34 32 28 24 23 21 16 16 15 13 13 10 7 6 5 2 1 3 4 6 8 11 14 16 17 18 20
28 28 28 27 27 27 27 26 25 24 23 22 22 22 22 21 20 20 20 21 22 23 24 25 26 27 30 31 32 34 36 37 39 40 42 43 42 42 41 42 42 43 45 47 48 49 50 52 53 54 54 54 52 52 51 49 46 44 43 41 38 36 33 31 28 27 24 18 17 17 17 16 13 9 9 7 5 3 2 2 4 6 8 11 14 15 16 17
29 30 29 29 29 28 28 27 27 26 24 23 23 23 22 22 21 21 21 21 21 22 23 25 26 27 29 31 32 34 35 37 38 40 42 43 44 43 43 43 43 44 45 46 47 49 50 52 53 54 55 55 54 53 53 51 48 46 45 43 41 38 36 33 32 31 28 21 18 18 19 19 16 14 12 10 8 6 3 1 1 3 5 8 11 13 14 15
31 31 31 31 30 30 29 29 28 27 26 24 24 23 23 23 22 21 21 21 21 21 23 24 25 27 28 30 32 34 35 36 38 40 42 43 44 45 44 44 44 44 45 45 47 48 50 52 53 55 56 55 54 55 55 53 50 48 47 45 43 41 38 36 34 32 30 25 21 20 20 20 18 17 15 13 11 9 6 5 2 2 3 4 8 10 12 13
33 33 33 32 32 32 31 30 29 28 27 26 25 24 24 24 23 22 22 21 21 21 22 23 24 26 28 29 31 33 35 36 37 39 41 42 44 45 46 46 45 45 45 45 46 48 50 52 54 56 56 54 55 56 56 55 52 49 48 47 45 43 41 39 36 33 31 28 27 24 21 21 20 18 17 16 14 12 10 9 6 4 3 2 5 7 9 11
34 34 34 34 33 33 32 31 30 29 28 27 25 25 24 24 24 23 23 22 21 21 21 22 23 25 27 29 31 32 34 36 37 39 40 41 43 45 46 47 47 47 46 46 47 48 50 52 53 55 54 54 55 56 56 56 53 51 50 49 47 45 44 41 39 37 33 30 29 26 22 20 20 20 18 16 15 14 13 13 10 7 5 3 3 4 6 8
36 36 35 35 34 34 33 32 31 30 29 28 26 25 25 25 24 24 23 22 22 21 21 22 23 24 26 28 30 32 34 35 37 38 39 41 43 44 46 47 48 48 48 48 48 49 49 50 51 53 53 53 55 56 56 56 55 54 52 51 49 48 47 45 43 40 37 33 29 27 25 22 20 20 19 16 16 15 15 15 13 9 7 6 4 2 3 6
37 37 36 36 35 35 34 32 31 30 29 28 27 26 25 25 25 25 24 23 22 21 22 22 22 23 25 27 30 31 33 35 36 38 39 40 42 44 45 46 48 49 49 49 49 49 49 48 50 52 53 53 54 55 56 56 56 55 55 53 52 50 49 48 46 44 41 38 33 29 29 26 23 22 20 18 16 17 17 16 15 11 9 9 7 4 1 3
38 37 37 37 36 35 35 33 32 31 30 29 27 26 25 25 25 25 24 23 23 22 22 21 22 23 24 26 29 30 32 34 36 37 39 40 42 43 44 46 48 49 51 51 50 50 49 49 50 52 53 53 54 55 56 57 56 56 56 56 54 53 52 51 49 46 44 42 37 33 30 29 27 24 22 21 18 18 19 17 16 14 11 10 9 6 4 1
38 38 38 37 37 36 35 34 33 31 30 29 28 26 26 25 25 25 25 24 23 22 22 21 21 22 23 25 28 30 32 33 35 37 38 40 41 42 44 46 47 49 51 51 51 50 50 51 51 51 51 51 52 53 55 57 58 58 58 58 57 56 55 53 50 48 46 44 41 37 32 29 28 25 24 23 20 19 20 19 18 17 13 12 11 9 6 4
38 38 38 38 37 37 36 35 34 32 31 30 28 27 26 25 25 25 25 25 24 21 21 21 21 21 22 24 27 29 31 32 34 36 37 39 40 42 43 45 47 48 50 51 51 51 52 51 50 50 50 51 51 53 56 58 59 59 59 59 59 58 56 55 52 51 49 46 44 41 36 32 29 28 26 24 22 22 21 21 21 19 16 14 13 11 9 7
39 39 39 38 38 37 36 36 34 33 31 30 29 28 26 25 25 24 24 26 25 23 20 19 21 21 21 24 26 28 30 32 33 34 36 38 39 41 42 44 46 47 49 50 51 52 53 52 52 51 50 51 52 54 56 58 59 59 58 59 60 59 58 56 54 53 51 48 47 44 41 36 33 32 29 25 24 24 23 23 23 20 18 17 15 13 11 9
39 39 38 38 37 36 36 35 34 33 31 30 29 28 27 26 25 24 23 24 26 25 22 19 19 21 21 23 25 26 29 31 32 34 35 37 38 40 41 43 45 47 48 50 51 52 52 53 52 52 51 50 51 53 55 56 58 59 59 60 61 59 59 58 57 55 53 51 50 47 45 42 38 36 32 27 26 26 25 26 24 21 19 18 18 16 14 11
37 37 36 35 34 34 34 33 33 32 31 30 29 28 27 26 25 24 23 23 25 25 24 21 19 20 20 21 24 25 27 29 31 33 34 36 37 39 40 42 44 46 48 49 50 51 52 52 53 53 52 51 51 52 53 55 57 58 58 59 59 59 59 60 59 57 55 54 52 50 47 45 42 39 35 31 29 28 29 28 26 23 20 19 19 18 16 13
33 33 32 32 31 31 31 31 31 31 30 30 29 28 27 26 25 24 23 23 24 24 23 22 20 19 19 20 23 24 26 28 30 32 33 35 36 37 39 41 43 44 46 48 49 50 51 52 53 54 54 53 52 52 53 54 55 56 57 57 57 58 60 60 60 59 57 56 54 52 50 48 45 40 37 34 30 30 31 30 27 25 24 21 18 18 17 16
30 30 30 30 29 29 29 30 30 30 30 29 29 28 27 26 25 25 24 23 24 23 22 22 20 19 18 20 22 24 25 27 29 30 32 33 35 37 38 39 41 43 44 46 48 49 50 51 53 54 55 55 54 54 53 53 54 55 56 56 57 59 60 61 61 60 58 57 55 54 52 51 47 41 37 34 31 30 31 30 28 27 27 23 20 20 20 19
30 30 30 30 29 29 29 29 29 29 29 29 29 28 27 26 25 25 25 24 23 21 22 22 20 18 19 19 21 23 24 26 28 29 31 32 34 36 37 38 40 41 42 45 47 48 49 51 52 54 54 55 56 55 53 53 54 56 56 56 57 59 60 61 61 60 59 58 58 56 54 53 49 44 39 35 33 32 32 31 29 29 29 26 23 23 24 22
30 28 29 29 29 29 29 29 30 29 29 28 29 28 27 26 25 25 25 24 23 20 20 22 21 18 19 19 19 21 24 26 27 28 30 31 33 35 36 37 38 39 41 43 45 46 48 50 52 53 54 56 57 56 55 55 56 56 56 56 56 56 58 60 61 61 60 60 59 58 57 55 52 49 44 39 37 36 34 33 32 32 31 28 26 26 26 25
28 26 27 27 27 28 28 29 30 30 30 29 29 28 26 25 25 25 24 25 23 20 18 20 21 20 19 19 19 20 23 25 26 28 29 30 32 34 34 36 37 38 40 42 42 43 46 49 51 52 53 54 56 56 55 56 56 56 56 56 55 55 56 59 61 61 61 61 60 60 59 57 54 52 48 44 42 42 40 38 36 35 35 31 28 28 28 27
26 26 26 27 27 27 27 28 30 31 31 31 30 28 25 25 25 24 25 25 23 21 19 19 20 20 18 17 18 19 21 24 25 27 28 30 31 32 33 35 36 37 39 40 40 42 44 47 50 50 51 52 54 55 55 56 57 56 56 56 56 55 56 59 61 60 61 61 61 61 60 59 57 55 52 49 47 46 45 42 39 38 36 32 31 31 31 29
27 28 29 29 29 28 27 27 29 30 31 32 32 28 25 25 24 24 26 25 21 21 21 20 20 20 18 18 18 18 20 23 24 25 27 29 30 31 33 34 35 37 39 38 39 41 43 45 47 48 50 51 53 55 55 56 57 56 57 56 55 55 55 57 59 60 61 62 62 61 61 60 59 57 56 55 54 52 51 48 44 41 36 33 33 34 33 30
30 31 32 32 31 30 29 28 28 29 30 33 33 29 25 25 24 24 26 25 22 21 21 21 21 18 16 18 19 17 19 21 23 24 26 28 29 30 32 33 34 37 37 36 38 40 42 43 44 46 48 50 51 53 54 55 56 56 56 55 54 55 54 55 57 58 60 61 62 63 62 62 61 60 59 58 58 57 56 52 49 45 39 36 36 35 34 33
33 33 34 35 33 32 31 30 29 29 30 33 34 30 27 26 24 23 25 26 24 21 20 22 22 18 16 20 19 15 16 19 22 23 24 27 28 29 30 32 34 36 36 36 38 40 41 42 43 45 47 48 49 50 52 54 55 56 56 55 55 55 55 54 55 56 59 61 62 63 63 63 63 62 61 59 58 57 54 50 49 47 41 38 39 38 37 36
32 32 33 35 34 33 33 32 30 29 30 33 34 31 29 27 24 22 23 26 26 22 20 22 22 19 20 21 18 14 15 17 19 21 24 26 26 27 28 31 34 36 34 35 38 40 41 41 42 45 46 46 47 49 50 51 53 55 56 56 56 56 55 55 55 55 57 60 61 62 63 63 64 64 62 61 60 58 52 46 45 45 42 38 39 40 38 37
30 30 32 35 33 32 33 33 31 31 31 33 33 32 30 28 26 23 23 28 27 22 20 22 22 22 22 21 18 16 17 16 16 18 22 23 24 26 28 31 34 35 33 33 38 42 41 40 41 44 45 45 46 47 48 49 52 53 55 56 56 56 56 57 57 55 56 58 60 60 62 63 64 64 64 62 61 60 57 50 45 43 42 40 40 41 38 35
31 31 34 36 35 33 33 33 32 32 32 33 33 31 30 30 28 25 24 28 28 23 21 23 24 23 23 22 20 19 20 18 15 15 17 20 22 24 27 29 31 32 32 34 39 41 40 40 41 44 45 45 46 46 46 48 50 51 53 54 56 57 57 58 58 57 57 58 59 60 61 62 63 64 64 63 62 61 61 58 53 48 45 44 44 43 40 37
34 33 36 39 37 35 34 33 32 33 34 34 33 31 31 31 29 26 25 29 29 25 23 23 25 25 24 23 21 21 22 22 18 15 14 17 20 22 25 27 29 31 31 34 38 39 38 40 42 43 45 46 46 46 45 46 47 49 50 52 53 56 57 58 58 58 59 60 59 59 60 60 62 63 63 63 63 62 61 61 59 56 53 52 51 50 47 43
37 35 36 39 40 39 38 35 34 35 35 34 32 32 31 31 31 29 27 29 31 28 25 25 26 27 25 23 22 24 26 24 21 18 17 18 19 20 23 26 27 29 30 33 36 36 36 40 42 42 44 45 45 45 45 45 45 46 48 49 50 52 54 56 58 59 60 60 59 59 59 60 61 62 63 63 64 63 61 60 60 58 56 56 56 54 51 46
39 36 36 38 41 43 41 37 35 36 36 35 32 31 31 32 32 31 29 30 31 31 30 29 28 29 26 23 24 27 28 26 23 21 21 21 22 23 23 24 25 27 29 32 34 33 36 40 42 42 43 44 45 45 45 44 44 44 45 46 47 49 50 54 57 58 59 60 60 60 59 60 62 63 63 64 64 63 60 59 59 58 55 55 56 55 51 47
42 39 37 38 42 44 41 38 37 37 37 36 33 31 31 32 34 33 31 30 31 33 35 33 31 32 30 25 25 30 30 27 25 24 24 25 25 26 26 25 24 25 26 29 32 32 35 39 40 41 42 43 43 44 44 44 43 43 43 43 44 45 47 50 54 56 58 59 60 61 61 62 63 63 63 64 65 65 63 59 58 57 55 56 56 54 52 49
45 43 41 40 42 44 42 40 38 38 39 38 36 33 32 34 35 34 32 31 31 33 35 34 33 34 32 28 29 32 33 31 28 26 27 28 28 28 29 28 25 23 24 27 30 31 34 36 38 39 41 42 42 43 43 43 42 42 43 42 42 43 44 47 49 52 54 56 59 62 63 64 64 64 63 64 65 66 66 62 58 56 55 56 57 55 53 52
48 47 45 43 43 44 44 41 40 40 40 39 38 36 35 36 37 35 34 33 32 32 33 33 33 32 30 30 31 33 34 33 31 29 30 29 29 30 31 31 29 26 25 26 27 30 32 34 35 37 39 41 42 42 43 42 42 42 42 42 41 41 42 43 45 47 49 53 57 62 64 65 66 65 64 63 65 66 67 65 61 57 55 56 57 55 53 52
52 51 49 47 44 45 46 44 42 42 41 40 40 39 38 38 36 36 35 33 32 31 31 32 31 29 28 29 29 30 32 32 31 31 31 30 30 31 31 31 31 30 28 26 25 28 30 31 32 34 37 40 41 42 43 42 41 41 42 42 41 41 41 42 43 44 45 48 53 59 63 65 66 66 65 64 65 65 66 66 63 60 57 56 56 54 52 51
55 54 52 50 47 45 46 46 44 43 42 41 41 42 40 38 37 37 35 33 32 31 30 30 29 27 28 28 27 28 31 31 29 29 29 29 30 30 29 31 33 31 29 28 27 28 28 28 29 32 35 38 40 41 42 42 41 41 41 41 42 42 42 42 42 43 44 45 47 53 59 64 66 67 67 67 66 65 66 67 65 62 60 58 55 52 51 50
55 54 53 52 49 45 46 47 46 45 44 43 43 43 41 39 38 37 34 32 32 31 30 30 29 27 27 27 26 28 31 31 29 27 26 26 27 27 28 31 31 29 30 31 31 29 27 26 28 31 33 35 37 40 41 41 41 40 41 41 42 44 44 43 43 44 43 43 45 48 53 59 63 66 68 69 68 67 67 68 67 65 64 63 57 51 49 49
53 53 52 51 49 46 45 47 47 46 46 44 43 43 42 40 37 34 33 33 32 30 29 28 28 28 28 27 27 30 31 30 29 26 24 24 25 27 28 27 26 28 31 32 32 30 28 27 27 29 31 32 35 38 40 40 39 39 40 41 42 44 44 44 45 46 45 44 45 46 48 53 58 63 66 69 70 69 68 68 69 68 66 67 66 59 51 49
51 51 50 50 49 47 46 46 47 47 46 44 42 41 41 38 35 33 32 32 31 30 28 27 28 30 30 30 30 31 29 27 27 25 24 25 26 26 26 25 25 28 29 28 28 29 30 29 28 28 28 30 34 36 37 38 37 36 38 40 41 42 43 44 46 47 47 46 46 47 48 51 55 59 63 67 69 70 69 66 67 70 71 70 70 69 62 53
Wind_Direction
286 288 289 290 290 288 284 278 274 271 268 265 260 258 256 255 253 251 248 243 239 234 231 229 228 226 224 223 222 221 221 220 219 219 219 219 219 219 218 218 219 220 221 219 214 212 211 212 214 215 217 216 216 218 219 223 226 217 206 218 224 250 286 308 328 354 356 355 15 19 21 24 24 26 28 28 28 27 27 28 29 28 28 31 33 34 34 35
288 289 289 288 288 287 287 283 280 275 272 270 266 263 259 256 253 252 250 248 244 239 235 231 230 228 226 225 223 222 222 221 220 220 220 219 219 219 218 218 219 220 220 220 216 214 212 212 213 215 217 216 217 218 216 217 220 216 215 222 218 229 272 306 339 352 339 343 12 22 23 25 28 29 29 29 30 29 28 28 29 29 29 31 34 34 35 35
287 289 289 287 286 285 285 285 283 280 277 274 271 267 263 260 256 253 251 249 247 244 240 235 231 230 228 227 225 224 222 222 222 221 220 220 220 219 219 218 219 220 219 219 218 215 214 214 213 214 217 217 217 217 214 216 221 219 214 208 201 206 240 298 10 338 313 326 4 23 28 28 30 32 30 30 30 30 29 29 30 30 31 32 34 35 35 35
288 289 290 289 288 286 285 284 284 282 280 277 275 272 268 264 261 256 252 249 248 246 243 239 235 231 229 229 227 225 223 223 223 222 221 221 220 220 219 218 219 219 218 218 218 216 215 215 214 214 217 217 218 217 214 216 219 220 215 200 183 176 197 145 33 318 302 308 348 21 30 33 32 33 32 30 31 30 29 29 30 31 31 32 34 34 35 35
291 292 292 291 290 289 287 286 285 284 282 280 278 275 272 268 264 260 256 251 247 245 244 242 239 235 231 229 229 228 225 224 224 223 222 222 221 220 219 219 219 218 218 218 218 217 215 216 215 215 217 218 219 217 214 214 217 220 222 218 189 172 183 168 246 295 316 303 323 4 23 35 34 34 34 31 31 31 29 29 31 31 32 33 34 34 34 35
294 294 294 293 293 292 291 289 287 286 284 282 280 277 274 270 267 263 259 255 250 246 243 242 241 238 234 231 229 228 226 225 226 224 223 223 222 221 220 220 219 218 218 218 217 217 215 216 216 216 216 218 219 218 214 212 215 221 228 238 210 187 191 206 254 277 303 296 302 330 1 33 35 36 35 33 31 31 30 29 31 32 32 33 34 35 34 35
295 295 294 294 294 294 294 293 291 289 286 284 281 278 275 272 269 265 261 257 253 248 244 241 241 240 237 234 231 228 226 226 228 226 223 223 223 222 221 221 220 218 218 217 217 217 216 216 216 217 216 217 219 217 216 213 215 221 226 233 216 199 196 206 251 269 278 283 286 304 337 21 36 36 36 35 31 31 32 30 31 33 33 33 35 35 35 35
296 295 296 295 296 296 296 295 294 292 290 287 284 281 277 273 269 266 262 258 254 251 246 242 240 239 238 236 233 229 226 227 229 227 224 224 223 223 222 221 220 219 217 217 217 217 217 217 218 218 217 218 219 218 217 216 216 220 223 224 211 201 199 202 229 250 254 262 269 281 324 359 32 36 36 37 32 30 32 30 30 32 34 34 34 36 36 35
297 297 298 298 298 298 298 298 297 295 293 291 287 284 281 276 272 268 263 259 255 251 248 244 240 238 237 237 235 230 225 226 228 228 226 224 223 223 223 222 221 220 218 217 217 217 217 217 219 220 219 219 219 219 218 217 217 217 221 223 212 203 205 206 213 227 236 247 252 240 303 338 20 36 37 39 33 30 31 30 29 30 34 34 34 36 37 36
298 299 300 300 300 301 300 300 299 297 295 293 290 287 284 280 275 270 266 261 256 252 248 245 242 239 237 236 235 230 226 226 227 228 227 225 224 223 223 223 222 220 219 218 218 217 216 217 218 220 221 220 218 218 219 219 218 216 218 222 217 211 213 215 214 223 233 246 251 228 238 315 359 30 35 41 36 31 30 32 30 29 33 35 35 36 37 37
300 301 301 301 302 303 303 302 301 300 297 295 292 289 286 282 278 274 269 264 259 254 250 246 243 240 238 236 234 231 228 228 228 227 227 226 225 224 223 223 222 221 219 218 218 218 217 216 218 220 223 223 219 218 219 220 219 217 217 219 219 218 223 228 230 234 228 231 247 247 251 281 318 6 27 39 37 32 29 31 32 30 32 35 36 36 38 38
302 302 303 303 304 305 305 305 304 302 300 297 294 291 287 283 280 275 271 267 261 257 252 248 244 241 239 236 234 231 229 229 229 228 227 227 226 225 224 223 222 222 220 219 219 218 217 217 217 218 222 224 221 218 220 221 220 219 219 220 220 221 228 234 235 238 226 222 239 251 257 267 282 311 19 35 37 33 28 30 32 32 31 34 36 37 38 38
302 303 304 305 307 308 307 307 306 306 303 300 297 293 289 285 280 276 272 268 263 259 255 250 246 242 240 237 234 231 229 229 230 229 227 227 227 226 225 224 223 222 221 220 220 219 218 217 217 217 220 223 222 220 220 221 221 221 221 221 221 222 227 231 230 235 231 229 241 246 250 261 267 267 307 27 36 35 28 28 32 33 32 32 36 38 39 39
303 304 305 307 309 310 310 309 309 308 306 303 300 296 291 287 282 277 272 268 265 261 256 252 248 244 241 238 235 232 229 228 229 230 228 226 226 226 226 225 224 222 221 220 221 220 219 219 218 217 219 222 222 222 221 221 221 221 221 222 222 222 226 227 223 230 232 230 237 238 245 256 255 244 230 289 29 35 32 29 29 33 33 32 34 37 39 40
304 305 306 308 310 311 311 311 311 310 308 306 302 299 295 290 285 279 274 269 265 262 258 254 250 247 243 240 237 234 231 229 228 230 229 227 226 226 226 225 225 224 222 220 220 220 220 220 219 217 219 220 221 222 222 222 221 221 221 221 222 222 225 225 219 227 233 230 231 233 241 250 242 230 224 227 305 26 36 32 26 29 33 33 33 34 38 40
305 306 307 309 311 311 312 312 312 311 309 307 304 301 297 293 288 282 276 271 267 263 259 255 251 248 246 242 238 235 233 230 228 228 229 228 226 225 226 225 225 225 223 221 220 219 220 221 220 219 219 220 221 222 223 223 223 221 221 221 221 221 223 223 216 222 230 227 231 230 231 240 235 224 225 229 246 336 25 33 26 23 30 33 33 32 34 38
305 306 308 309 311 311 312 312 312 311 309 308 306 303 299 295 291 285 279 273 268 264 260 257 252 249 247 244 240 236 234 232 230 229 229 229 227 226 225 225 225 225 225 223 220 219 219 220 221 220 220 220 220 222 223 223 223 222 222 222 222 222 222 221 216 220 225 223 231 230 224 231 235 230 227 228 241 274 337 24 28 17 23 30 33 32 30 35
305 306 308 309 311 311 311 311 311 311 310 309 307 304 300 297 293 287 282 276 270 266 261 258 254 250 248 245 242 238 235 233 231 229 228 228 228 227 225 225 225 225 225 224 222 219 219 220 221 221 220 219 219 221 223 223 222 223 224 223 223 223 222 221 218 220 223 221 230 231 224 226 233 235 229 228 236 245 268 289 13 5 8 23 32 33 28 31
305 306 307 309 310 310 311 311 311 310 310 309 307 304 301 298 294 289 284 279 274 268 263 259 255 252 249 246 243 241 237 234 232 230 229 228 228 227 226 225 225 225 225 225 223 221 219 219 220 221 220 219 219 220 223 224 222 222 224 224 224 223 222 222 220 220 222 223 227 229 227 227 230 233 232 235 238 235 245 250 244 301 332 4 25 32 28 27
304 305 306 308 309 310 310 310 310 310 309 309 307 304 302 298 295 291 286 281 276 271 265 260 256 253 251 247 243 242 239 236 233 231 230 229 228 227 226 226 225 225 225 225 225 223 220 219 220 221 220 219 219 220 222 224 223 222 223 224 224 224 223 223 222 220 222 224 225 226 229 231 231 232 232 236 237 233 239 245 237 238 262 323 8 27 29 26
303 304 305 306 307 308 308 308 309 308 308 307 306 303 301 297 295 292 288 284 279 273 268 262 258 254 251 248 245 242 240 237 234 232 230 229 229 227 227 226 226 226 225 225 225 224 222 221 220 221 221 220 220 220 221 222 223 223 224 224 224 224 224 223 222 222 222 222 223 226 230 233 234 234 232 232 235 237 239 241 237 229 234 260 320 13 30 27
301 303 304 305 306 306 306 306 307 307 306 305 304 302 300 296 293 291 288 285 282 277 271 265 260 256 252 249 246 243 240 238 236 233 231 229 229 228 227 226 226 226 226 225 226 225 224 223 222 222 221 220 220 221 221 222 222 223 224 224 224 224 224 223 222 223 223 221 222 227 231 233 233 233 231 230 236 241 238 239 237 228 228 243 261 322 21 28
301 302 303 304 304 304 304 304 305 305 304 304 302 301 299 297 294 292 289 287 283 279 274 268 263 258 254 250 247 244 241 239 237 234 232 230 229 228 227 227 226 226 226 226 226 226 225 224 223 222 221 220 220 220 221 221 221 222 224 223 224 224 225 224 223 223 223 223 224 228 231 232 232 232 230 230 240 240 233 236 236 225 226 237 248 260 296 26
300 301 302 302 303 303 303 303 303 303 303 302 301 300 298 296 294 292 290 288 285 281 276 271 266 261 256 251 248 244 242 240 237 235 233 231 229 228 228 227 226 226 226 226 226 226 226 225 223 223 221 219 220 221 221 221 220 221 222 223 223 224 225 225 224 223 223 223 224 226 228 229 229 231 229 229 234 232 228 233 233 223 219 228 237 246 249 273
299 300 301 301 302 302 302 302 302 302 301 300 300 299 297 295 293 291 290 288 286 283 280 275 269 263 258 252 248 245 242 240 238 236 234 232 230 229 228 227 227 227 227 226 225 227 227 226 225 224 222 221 221 221 221 221 220 219 221 222 222 223 224 225 225 224 224 224 224 225 226 226 225 227 227 227 226 224 226 231 231 225 219 219 224 235 244 240
299 299 300 300 301 301 302 302 301 301 300 299 299 298 296 295 293 292 291 289 285 283 281 279 272 265 259 253 248 245 243 240 238 237 235 233 231 230 228 228 227 227 228 227 225 226 227 227 227 225 223 221 221 221 222 222 221 219 220 222 222 222 223 224 225 225 225 224 224 224 225 224 224 224 225 226 223 222 227 230 228 227 222 219 221 228 235 237
299 299 299 300 300 301 301 301 301 300 299 299 298 297 295 294 292 291 292 291 288 284 280 278 275 267 260 254 249 244 243 240 238 237 236 234 232 231 229 229 228 228 228 228 226 226 227 227 227 226 224 222 221 221 222 223 222 220 220 222 222 222 223 224 224 225 225 225 225 224 224 225 226 226 226 226 224 224 230 232 230 229 225 223 224 226 228 231
298 298 299 299 300 300 301 300 300 299 298 297 297 295 294 293 292 291 291 291 290 289 283 278 276 269 261 256 250 245 242 240 239 237 236 235 233 232 231 229 228 228 229 228 227 226 227 227 228 228 226 224 223 222 222 223 224 221 220 221 222 221 222 223 223 224 225 225 225 225 225 226 227 229 228 225 223 225 232 235 233 229 227 227 226 224 222 224
297 298 299 299 300 300 300 300 299 298 297 296 295 294 293 292 292 290 290 289 288 287 286 282 277 270 262 257 252 246 242 240 239 238 236 235 234 233 232 231 229 228 229 229 228 227 227 227 227 228 227 225 224 223 222 223 225 224 221 222 223 222 222 223 223 223 224 224 225 225 225 225 227 230 229 225 223 227 233 236 232 226 223 224 224 222 219 222
297 298 299 300 301 302 301 301 299 298 297 295 294 293 292 292 291 290 289 287 284 285 285 282 277 269 262 257 254 248 243 239 238 238 237 236 235 233 233 232 231 230 229 229 228 227 227 227 227 227 227 226 225 223 222 223 225 225 223 222 223 222 222 223 223 222 223 224 225 225 225 225 226 228 227 225 226 228 230 230 225 220 217 217 220 222 221 222
298 299 300 301 302 303 303 303 301 299 297 295 293 291 291 291 290 289 286 284 283 284 283 280 275 269 261 256 254 249 244 240 238 237 237 236 235 234 233 233 233 231 231 231 229 228 227 228 228 228 227 227 226 224 223 223 225 225 223 223 223 222 222 222 222 222 222 223 224 225 225 225 225 226 225 224 226 225 223 223 220 218 216 216 221 225 224 224
298 299 299 299 301 301 302 303 302 301 300 296 293 291 290 290 289 287 285 283 282 282 282 279 274 268 262 256 252 249 245 241 239 237 236 236 235 234 233 233 233 232 232 232 231 229 228 228 229 228 228 227 227 225 223 224 225 224 223 223 224 223 222 222 222 222 222 222 224 225 226 226 224 224 225 224 222 219 217 219 219 219 219 222 227 227 225 226
298 300 300 300 300 299 300 301 301 301 301 298 295 292 290 289 287 285 284 283 280 277 276 276 272 266 262 258 252 248 245 241 239 238 236 235 235 234 233 233 233 233 233 233 232 231 230 229 229 229 229 228 227 226 224 224 225 225 223 224 224 224 224 223 222 222 222 222 223 224 225 226 224 223 224 223 219 216 215 217 219 222 225 230 234 228 223 226
301 302 303 303 303 301 300 299 298 299 299 298 296 294 292 289 286 285 284 281 279 275 271 271 269 264 260 259 254 248 244 241 239 238 237 236 235 235 234 233 233 233 233 233 233 233 233 232 230 229 229 230 229 227 225 225 227 226 225 224 223 223 224 224 222 222 222 222 223 223 224 225 225 223 221 219 217 217 219 222 223 227 230 233 234 226 222 225
301 303 304 305 304 304 303 301 298 296 296 296 295 294 294 290 286 285 282 279 280 280 274 267 263 261 261 261 256 249 245 243 240 239 238 237 235 235 235 234 233 233 233 233 233 234 234 235 233 231 230 231 230 228 226 226 227 228 227 226 224 223 224 224 223 222 222 222 222 223 224 223 224 223 221 218 218 220 225 229 231 232 231 230 228 222 220 223
297 299 301 300 301 301 302 302 299 296 294 294 292 293 294 290 287 284 280 279 278 277 274 266 258 257 260 262 257 248 244 242 241 239 238 238 236 235 235 234 233 234 234 233 233 234 235 236 236 234 232 231 231 230 228 227 227 228 228 228 226 225 224 225 225 223 222 223 222 222 223 223 223 223 222 221 221 224 229 232 234 235 232 228 225 222 220 223
293 294 295 295 295 296 298 299 299 297 294 291 289 290 292 290 287 283 281 280 276 270 268 263 256 252 256 261 258 249 245 244 242 240 238 238 236 236 236 236 235 235 234 233 234 235 235 236 237 238 235 233 232 231 230 228 228 228 229 229 229 227 225 225 226 225 224 223 223 222 222 223 223 223 224 224 225 228 232 234 235 236 233 225 222 223 223 223
292 292 293 291 291 292 293 294 295 296 294 289 286 286 288 288 286 284 282 279 274 268 264 260 256 249 247 253 255 251 247 245 243 241 239 238 237 236 237 238 237 236 234 233 235 235 235 235 236 239 238 236 234 233 231 230 228 228 228 228 228 228 226 226 226 227 226 225 224 223 222 223 223 223 224 225 227 228 230 233 233 235 233 225 221 225 228 227
293 294 294 292 291 289 289 289 290 292 292 289 285 283 283 285 287 284 280 275 271 267 261 257 254 248 243 247 253 255 250 243 241 242 240 239 237 235 235 237 239 238 235 233 236 236 235 235 236 238 239 238 237 235 232 231 230 228 228 227 227 227 226 225 226 226 227 227 225 224 224 223 223 224 223 224 226 227 225 225 227 231 231 225 221 224 229 229
293 296 296 294 292 289 288 287 286 287 288 287 285 281 279 281 283 280 274 271 270 267 261 255 250 246 243 243 246 250 250 245 239 241 244 243 240 236 235 236 239 240 237 235 237 237 236 235 236 238 240 239 239 238 235 233 231 229 228 227 227 227 226 225 224 224 226 228 227 226 225 225 224 224 224 224 226 227 224 220 219 223 225 221 218 220 224 228
292 294 294 292 292 291 288 285 283 282 282 283 282 280 277 275 276 275 271 270 270 266 259 255 250 245 243 241 239 242 249 249 239 236 243 246 243 240 238 238 239 241 239 236 237 238 237 236 236 238 240 240 240 239 238 235 233 230 229 228 228 227 226 225 224 222 223 226 227 226 225 225 225 226 226 225 226 227 227 224 221 220 222 221 218 219 224 231
291 293 292 291 292 291 287 284 281 277 276 278 280 280 276 272 271 271 269 268 268 264 257 253 251 247 243 241 239 239 244 247 243 238 238 243 244 244 243 241 240 241 240 239 240 240 239 238 237 237 239 241 241 240 239 238 235 232 230 229 229 228 227 227 226 223 223 224 226 226 225 225 225 226 227 227 227 228 229 229 227 224 225 227 227 226 229 233
292 292 291 292 292 288 284 281 279 276 275 276 278 279 278 273 268 266 264 263 264 264 260 255 253 250 246 241 239 241 242 242 243 242 241 244 247 246 246 245 243 241 241 242 242 242 241 240 239 237 238 240 241 241 241 240 238 235 232 230 230 229 228 228 227 225 225 225 225 226 226 225 225 225 225 226 228 228 228 229 231 229 228 230 232 232 233 233
293 293 293 292 289 286 283 280 278 277 276 275 276 277 277 273 266 261 260 260 260 261 260 256 254 254 250 243 239 243 244 241 240 242 244 247 250 250 248 247 246 243 241 242 244 243 241 241 241 240 239 239 240 241 242 241 240 239 235 233 231 230 229 229 227 226 226 225 225 226 226 226 225 224 224 225 226 226 226 227 229 230 229 230 232 232 233 231
294 294 294 291 287 286 286 283 279 276 275 273 273 273 273 271 265 259 257 257 257 257 257 255 254 254 253 247 243 246 248 246 242 240 244 247 249 251 251 249 246 245 244 245 245 243 241 242 242 242 242 241 240 241 242 241 241 240 239 236 233 231 230 230 228 226 225 225 225 225 225 226 226 225 223 223 224 225 224 224 226 228 229 231 232 232 231 229
294 294 293 292 290 289 288 284 279 275 273 272 270 269 268 266 262 256 254 254 253 253 255 255 254 253 253 251 247 248 250 250 246 243 245 247 248 249 252 252 249 247 246 246 245 244 242 243 243 243 243 243 242 241 242 241 241 241 240 239 236 233 231 231 229 227 225 224 225 225 225 225 226 226 224 224 224 225 225 223 223 226 229 231 233 232 230 228
294 294 294 294 293 290 286 283 279 275 272 270 268 266 264 262 260 255 251 252 253 253 254 254 252 251 252 251 249 249 251 252 251 248 246 246 247 248 251 253 253 249 246 246 247 246 244 243 244 244 243 244 243 243 242 242 241 240 240 240 239 235 233 231 230 228 226 224 224 225 225 225 225 226 226 225 225 225 225 224 222 222 226 229 230 230 230 228
292 293 294 295 294 288 284 281 278 274 272 270 267 264 261 260 259 254 249 249 252 252 250 250 249 250 250 250 250 252 253 253 252 250 248 246 246 247 248 251 252 250 248 247 247 248 246 244 244 245 244 244 244 243 243 242 241 240 240 240 239 238 236 233 230 228 226 224 224 225 226 225 225 225 225 225 225 225 225 224 221 219 221 223 225 226 227 226
291 291 292 294 293 287 282 279 277 274 272 270 266 263 261 259 255 249 245 247 249 248 247 248 250 250 251 251 251 252 254 255 253 252 251 248 245 245 245 246 247 247 248 247 245 246 247 246 244 244 243 243 243 243 243 242 241 240 240 239 239 239 238 236 233 231 228 225 225 226 226 226 225 224 224 224 225 225 225 224 222 219 217 218 221 224 224 221
290 288 289 291 291 285 279 277 276 274 272 268 264 262 260 258 253 247 241 241 245 245 244 246 250 253 255 257 256 254 253 255 255 253 251 248 246 244 242 243 247 247 245 244 244 244 246 245 243 242 242 241 242 243 243 243 241 240 240 239 239 238 238 237 237 236 232 228 226 226 227 227 227 225 224 224 224 224 223 223 222 220 216 216 218 220 220 218
287 287 287 288 287 282 277 276 276 274 271 267 264 262 260 257 252 244 237 236 239 241 242 248 255 258 259 259 256 253 251 252 254 254 250 246 243 243 242 242 244 245 242 242 243 244 245 245 243 243 243 241 241 243 243 243 241 240 240 239 238 238 237 237 238 238 237 233 230 229 228 229 229 227 225 224 224 224 224 224 223 221 218 217 218 219 217 214
285 284 285 284 283 280 277 275 275 273 271 267 264 261 258 253 244 237 235 235 236 238 241 249 254 253 252 250 250 251 251 251 253 252 249 244 241 242 244 242 240 242 245 246 246 244 244 243 242 242 242 241 241 242 243 244 243 241 240 239 238 237 237 236 236 237 237 236 234 233 232 231 230 228 226 225 224 224 224 224 225 224 221 218 219 221 219 214
Height
10948 10948 10947 10947 10946 10946 10946 10946 10946 10946 10946 10946 10946 10946 10946 10946 10946 10946 10947 10947 10947 10948 10948 10949 10950 10951 10952 10953 10955 10957 10959 10961 10963 10965 10967 10970 10972 10975 10978 10980 10981 10983 10985 10987 10990 10992 10993 10994 10995 10997 10998 10999 11000 11001 11001 11002 11003 11003 11003 11003 11003 11002 11001 11002 11002 11001 11001 11001 11000 10999 10999 10998 10996 10994 10992 10991 10989 10987 10985 10982 10980 10977 10974 10971 10969 10966 10964 10962
10947 10947 10946 10946 10945 10945 10945 10944 10944 10944 10945 10945 10945 10945 10945 10945 10945 10945 10945 10945 10945 10946 10946 10947 10948 10948 10949 10951 10952 10954 10955 10957 10959 10961 10964 10967 10969 10972 10975 10977 10978 10980 10982 10985 10987 10989 10991 10992 10993 10994 10996 10997 10998 10999 11000 11001 11002 11002 11003 11003 11003 11002 11002 11002 11002 11001 11001 11001 11000 11000 10999 10998 10997 10995 10993 10992 10990 10989 10987 10985 10982 10980 10977 10974 10971 10969 10966 10964
10946 10946 10945 10945 10944 10944 10943 10943 10943 10943 10943 10943 10943 10943 10943 10943 10943 10943 10943 10943 10943 10944 10944 10944 10945 10946 10947 10948 10949 10950 10952 10954 10956 10958 10961 10963 10966 10969 10972 10974 10975 10977 10980 10983 10985 10987 10989 10990 10991 10993 10994 10995 10996 10997 10999 11000 11001 11002 11003 11003 11003 11002 11002 11002 11002 11002 11002 11001 11000 11000 11000 10999 10997 10995 10994 10993 10991 10990 10988 10987 10985 10982 10980 10976 10973 10971 10968 10966
10945 10945 10944 10943 10943 10942 10942 10941 10941 10941 10940 10940 10940 10940 10941 10941 10941 10941 10941 10941 10941 10941 10941 10942 10943 10943 10944 10945 10946 10947 10949 10951 10953 10955 10958 10960 10962 10965 10968 10970 10972 10975 10978 10980 10982 10985 10986 10987 10989 10991 10991 10993 10994 10996 10998 10999 11000 11001 11002 11003 11003 11002 11002 11002 11002 11002 11001 11001 11001 11000 11000 10999 10998 10996 10994 10993 10992 10991 10989 10988 10986 10984 10982 10979 10976 10973 10971 10969
10944 10943 10942 10942 10941 10940 10940 10939 10939 10939 10938 10938 10938 10938 10938 10938 10938 10938 10938 10939 10939 10939 10939 10939 10940 10940 10941 10942 10943 10944 10946 10948 10949 10952 10954 10956 10959 10961 10964 10966 10968 10972 10975 10977 10980 10982 10984 10985 10987 10988 10989 10990 10992 10994 10996 10998 10999 11000 11001 11002 11003 11003 11002 11001 11002 11002 11002 11002 11001 11001 11001 11000 10998 10996 10995 10994 10993 10992 10991 10989 10988 10986 10984 10981 10978 10976 10973 10971
10942 10942 10941 10940 10939 10939 10938 10937 10937 10936 10936 10935 10935 10935 10935 10935 10935 10935 10935 10936 10936 10936 10936 10937 10937 10938 10938 10939 10940 10941 10944 10946 10946 10948 10950 10952 10955 10957 10960 10962 10965 10969 10972 10974 10977 10979 10981 10982 10984 10985 10986 10988 10989 10992 10994 10996 10998 10999 11001 11002 11002 11002 11002 11002 11002 11002 11002 11002 11002 11002 11001 11000 10998 10997 10996 10995 10994 10993 10992 10991 10989 10987 10985 10983 10981 10978 10976 10974
10941 10940 10939 10938 10937 10937 10936 10935 10935 10934 10933 10933 10932 10932 10932 10932 10932 10932 10932 10932 10933 10933 10933 10934 10934 10934 10935 10936 10937 10938 10942 10943 10942 10944 10947 10949 10951 10954 10956 10959 10962 10965 10968 10971 10974 10976 10977 10979 10980 10982 10983 10985 10987 10989 10992 10994 10996 10998 11001 11001 11001 11002 11002 11002 11002 11002 11002 11002 11002 11002 11001 11000 10999 10998 10997 10996 10995 10994 10993 10992 10990 10989 10987 10986 10983 10981 10978 10976
10939 10938 10937 10936 10935 10935 10934 10933 10932 10931 10931 10930 10929 10929 10928 10928 10928 10928 10928 10929 10929 10930 10930 10930 10931 10931 10932 10932 10934 10937 10940 10940 10939 10940 10943 10945 10947 10950 10952 10955 10958 10962 10965 10968 10970 10972 10974 10976 10978 10979 10981 10983 10985 10987 10990 10992 10995 10997 10999 10999 11000 11001 11002 11003 11002 11002 11001 11002 11002 11001 11001 11000 10999 10998 10997 10996 10996 10995 10994 10993 10991 10990 10989 10987 10985 10983 10980 10978
10937 10936 10935 10934 10933 10932 10932 10931 10930 10929 10928 10927 10926 10926 10925 10925 10925 10925 10925 10925 10925 10926 10926 10927 10927 10928 10928 10929 10931 10935 10937 10935 10935 10936 10939 10941 10943 10945 10948 10951 10954 10958 10961 10964 10966 10969 10972 10974 10975 10977 10979 10980 10982 10984 10987 10990 10993 10995 10996 10996 10999 11001 11002 11002 11001 11001 11001 11001 11001 11001 11001 11001 10999 10998 10998 10997 10996 10996 10995 10994 10993 10992 10991 10989 10987 10984 10982 10980
10935 10934 10933 10932 10931 10930 10929 10928 10927 10926 10925 10924 10923 10923 10922 10921 10921 10921 10921 10921 10921 10922 10922 10923 10923 10924 10925 10926 10928 10931 10932 10931 10932 10933 10935 10937 10939 10941 10944 10946 10950 10953 10957 10960 10963 10965 10968 10970 10972 10974 10975 10975 10979 10982 10985 10988 10990 10993 10993 10994 10998 11000 11001 11000 11001 11001 11001 11000 11000 11000 11000 11000 11000 10999 10998 10998 10997 10997 10996 10995 10994 10993 10992 10990 10989 10986 10984 10982
10932 10931 10930 10929 10928 10927 10926 10925 10925 10923 10922 10921 10920 10920 10919 10918 10918 10918 10917 10917 10917 10918 10918 10919 10919 10920 10921 10922 10924 10927 10928 10928 10928 10930 10931 10933 10935 10937 10940 10942 10946 10949 10953 10956 10958 10961 10964 10967 10970 10972 10971 10972 10977 10981 10983 10985 10988 10991 10992 10993 10996 10999 10999 10999 11000 11001 11000 11000 10999 10999 11000 11000 11000 10999 10998 10998 10998 10998 10997 10996 10996 10995 10993 10992 10991 10989 10986 10984
10930 10929 10928 10927 10926 10925 10924 10923 10922 10921 10920 10919 10918 10917 10916 10915 10915 10914 10914 10914 10914 10914 10914 10915 10916 10916 10917 10919 10920 10922 10924 10924 10925 10926 10928 10929 10931 10933 10936 10938 10941 10945 10949 10952 10954 10957 10960 10964 10967 10968 10968 10970 10975 10978 10979 10982 10986 10988 10990 10991 10994 10997 10997 10997 10999 11000 11000 10999 10998 10999 11000 11000 11000 10999 10999 10998 10998 10998 10998 10997 10997 10996 10994 10993 10992 10991 10989 10987
10928 10927 10925 10925 10924 10922 10921 10920 10919 10918 10917 10916 10915 10914 10913 10912 10912 10911 10911 10910 10910 10910 10910 10911 10912 10913 10913 10914 10916 10918 10920 10920 10921 10923 10924 10926 10928 10930 10932 10934 10937 10940 10944 10947 10950 10953 10957 10960 10962 10964 10965 10967 10971 10974 10977 10980 10983 10985 10987 10989 10992 10994 10995 10996 10998 10999 10999 10998 10998 10999 10999 11000 11000 11000 10999 10999 10998 10998 10998 10998 10997 10997 10996 10995 10994 10992 10991 10989
10925 10924 10923 10922 10921 10920 10919 10918 10917 10916 10914 10913 10912 10911 10910 10909 10908 10908 10907 10907 10906 10906 10907 10907 10908 10908 10909 10910 10912 10913 10915 10917 10917 10919 10920 10923 10924 10926 10928 10930 10933 10936 10940 10943 10946 10950 10953 10955 10958 10961 10962 10964 10967 10971 10974 10977 10980 10982 10985 10987 10989 10991 10993 10995 10997 10998 10997 10997 10998 10998 10998 10999 11000 11000 10999 10999 10998 10998 10998 10998 10998 10998 10997 10996 10995 10994 10992 10991
10923 10922 10921 10920 10918 10917 10916 10915 10914 10913 10912 10910 10909 10908 10907 10906 10905 10905 10904 10903 10903 10903 10903 10903 10904 10904 10905 10906 10907 10909 10911 10913 10914 10915 10916 10919 10920 10922 10924 10926 10929 10932 10935 10938 10941 10945 10948 10950 10954 10957 10959 10960 10964 10967 10970 10972 10976 10979 10982 10984 10986 10989 10991 10993 10996 10995 10994 10996 10997 10996 10997 10998 10999 10999 10999 10999 10999 10999 10999 10999 10999 10998 10998 10997 10996 10995 10994 10993
10920 10919 10918 10917 10916 10914 10913 10912 10911 10910 10909 10908 10906 10905 10904 10903 10902 10902 10901 10900 10900 10899 10899 10900 10900 10900 10901 10902 10903 10905 10906 10908 10910 10911 10912 10914 10916 10918 10921 10923 10925 10927 10930 10933 10937 10941 10943 10946 10949 10953 10955 10957 10961 10963 10965 10968 10971 10976 10979 10981 10983 10986 10988 10991 10994 10992 10991 10994 10995 10995 10996 10996 10997 10998 10998 10999 10999 10998 10999 10999 10999 10999 10998 10998 10997 10996 10995 10994
10917 10916 10915 10914 10913 10912 10910 10909 10908 10907 10906 10905 10903 10902 10901 10900 10899 10898 10898 10897 10896 10896 10896 10896 10896 10897 10896 10897 10899 10900 10902 10903 10905 10907 10908 10910 10912 10915 10917 10919 10921 10923 10925 10928 10932 10936 10939 10941 10944 10947 10950 10954 10957 10959 10961 10964 10969 10973 10975 10978 10980 10983 10985 10988 10990 10989 10989 10993 10994 10993 10995 10995 10996 10998 10998 10998 10998 10998 10998 10998 10999 10999 10999 10998 10998 10997 10996 10996
10914 10913 10912 10911 10910 10908 10907 10906 10905 10904 10903 10902 10901 10899 10898 10897 10896 10895 10894 10894 10893 10893 10892 10892 10892 10892 10892 10893 10894 10895 10897 10899 10901 10902 10904 10906 10908 10911 10913 10915 10917 10919 10921 10924 10927 10931 10933 10936 10939 10942 10945 10949 10954 10955 10957 10961 10966 10969 10971 10974 10977 10980 10982 10984 10986 10987 10987 10990 10992 10992 10993 10993 10994 10996 10997 10997 10997 10998 10998 10998 10998 10999 10999 10999 10998 10998 10997 10997
10911 10910 10909 10908 10906 10905 10904 10903 10902 10901 10900 10899 10897 10896 10895 10894 10893 10892 10891 10891 10890 10889 10889 10888 10888 10888 10888 10889 10890 10891 10893 10894 10896 10898 10899 10901 10904 10906 10908 10910 10913 10914 10917 10919 10922 10925 10928 10931 10933 10935 10939 10945 10949 10951 10952 10956 10962 10965 10968 10970 10973 10976 10979 10981 10983 10985 10985 10988 10990 10990 10990 10991 10993 10995 10995 10996 10996 10997 10998 10998 10998 10998 10999 10999 10999 10998 10998 10997
10908 10907 10906 10905 10903 10902 10901 10900 10899 10897 10896 10895 10894 10893 10892 10890 10889 10889 10888 10887 10887 10886 10885 10885 10885 10884 10884 10885 10886 10886 10888 10889 10891 10893 10895 10897 10899 10902 10904 10906 10909 10910 10913 10915 10917 10920 10923 10925 10927 10930 10935 10941 10944 10947 10949 10953 10958 10962 10964 10967 10970 10973 10975 10978 10981 10982 10983 10985 10987 10988 10989 10990 10992 10993 10994 10994 10995 10996 10996 10997 10998 10998 10999 10999 10999 10999 10998 10998
10905 10904 10903 10901 10900 10899 10897 10896 10895 10894 10893 10892 10891 10890 10888 10887 10886 10885 10884 10884 10883 10882 10882 10881 10881 10881 10880 10881 10881 10882 10883 10885 10886 10888 10890 10893 10895 10897 10899 10902 10904 10906 10908 10910 10912 10914 10917 10920 10924 10926 10932 10937 10940 10943 10946 10949 10954 10958 10961 10964 10967 10970 10972 10974 10977 10979 10981 10982 10984 10986 10987 10989 10990 10991 10993 10993 10994 10994 10995 10996 10997 10998 10998 10999 10999 10999 10999 10998
10901 10900 10899 10898 10897 10895 10894 10893 10892 10891 10890 10888 10887 10886 10885 10883 10882 10882 10881 10880 10879 10879 10878 10878 10877 10877 10877 10876 10877 10878 10879 10880 10882 10884 10886 10888 10890 10892 10894 10897 10899 10901 10903 10905 10907 10910 10913 10917 10920 10923 10928 10932 10935 10938 10941 10946 10950 10953 10956 10959 10963 10965 10967 10970 10973 10975 10978 10979 10982 10984 10985 10986 10988 10989 10991 10991 10992 10993 10994 10995 10996 10997 10998 10998 10998 10999 10999 10999
10898 10896 10895 10894 10893 10891 10890 10889 10889 10887 10886 10885 10884 10883 10881 10880 10879 10878 10877 10877 10876 10875 10874 10874 10874 10873 10873 10872 10873 10873 10874 10875 10877 10879 10881 10883 10885 10887 10890 10892 10895 10896 10898 10900 10903 10905 10909 10913 10915 10918 10922 10927 10929 10933 10937 10941 10946 10948 10951 10954 10958 10960 10962 10965 10969 10972 10974 10977 10979 10981 10983 10984 10985 10987 10989 10990 10991 10992 10993 10994 10995 10996 10997 10997 10998 10999 10999 10999
10894 10892 10891 10890 10888 10887 10886 10885 10885 10884 10882 10881 10880 10879 10878 10877 10875 10874 10873 10873 10872 10871 10871 10870 10870 10869 10869 10869 10869 10869 10870 10871 10872 10874 10876 10878 10880 10882 10885 10888 10890 10891 10892 10895 10899 10902 10905 10907 10909 10912 10917 10922 10925 10928 10931 10935 10940 10943 10946 10949 10953 10955 10957 10960 10965 10968 10971 10974 10976 10978 10980 10981 10983 10984 10986 10988 10989 10990 10991 10992 10994 10995 10996 10997 10998 10998 10999 10999
10890 10888 10887 10886 10884 10883 10882 10881 10880 10880 10879 10877 10877 10876 10875 10873 10872 10870 10869 10869 10868 10868 10867 10866 10866 10866 10865 10865 10865 10865 10866 10867 10868 10869 10871 10873 10875 10878 10880 10882 10884 10886 10887 10891 10895 10898 10900 10902 10905 10909 10913 10918 10921 10924 10926 10929 10933 10937 10940 10943 10946 10950 10953 10956 10961 10965 10968 10970 10973 10975 10977 10978 10980 10982 10983 10985 10987 10988 10990 10991 10992 10994 10995 10996 10997 10998 10998 10999
10886 10884 10883 10881 10880 10879 10878 10877 10876 10876 10875 10873 10873 10872 10871 10870 10868 10867 10866 10864 10864 10864 10864 10863 10862 10862 10861 10861 10861 10861 10862 10862 10863 10865 10867 10868 10871 10873 10875 10877 10880 10882 10883 10887 10891 10893 10895 10898 10901 10905 10908 10912 10916 10918 10921 10923 10927 10931 10936 10938 10942 10946 10949 10953 10957 10960 10964 10967 10969 10972 10974 10976 10978 10979 10981 10983 10985 10986 10988 10989 10990 10992 10994 10995 10996 10997 10998 10998
10881 10880 10878 10877 10876 10874 10873 10872 10871 10871 10870 10869 10869 10868 10867 10866 10865 10864 10863 10860 10859 10860 10860 10860 10858 10858 10858 10857 10857 10857 10857 10858 10860 10861 10862 10864 10866 10868 10870 10872 10875 10877 10879 10881 10885 10888 10890 10893 10896 10899 10903 10907 10910 10913 10916 10918 10921 10927 10932 10933 10937 10942 10946 10949 10953 10956 10960 10963 10966 10968 10970 10973 10975 10977 10980 10982 10983 10985 10986 10987 10989 10991 10993 10994 10995 10996 10997 10997
10877 10875 10874 10873 10872 10870 10869 10868 10867 10866 10866 10865 10865 10864 10863 10862 10861 10861 10860 10857 10855 10854 10855 10856 10855 10854 10854 10854 10853 10853 10854 10855 10856 10857 10858 10859 10861 10863 10866 10868 10870 10872 10874 10876 10880 10883 10886 10889 10892 10895 10899 10903 10906 10909 10912 10914 10917 10922 10927 10927 10931 10937 10941 10944 10948 10952 10956 10959 10962 10965 10967 10970 10972 10974 10977 10980 10981 10983 10984 10985 10987 10990 10991 10992 10993 10994 10995 10996
10872 10871 10870 10868 10867 10866 10865 10864 10862 10862 10861 10861 10860 10859 10859 10859 10858 10857 10856 10855 10853 10851 10851 10852 10852 10851 10851 10850 10849 10849 10850 10851 10852 10852 10854 10855 10857 10859 10861 10863 10865 10868 10869 10872 10876 10879 10882 10885 10887 10890 10893 10897 10900 10904 10908 10910 10913 10917 10922 10924 10929 10934 10936 10939 10943 10947 10951 10955 10958 10961 10964 10967 10969 10972 10975 10977 10978 10980 10982 10983 10986 10988 10989 10990 10991 10992 10994 10995
10868 10867 10866 10864 10863 10862 10861 10859 10858 10857 10857 10856 10855 10855 10855 10855 10854 10853 10853 10851 10850 10848 10848 10847 10847 10847 10847 10847 10846 10846 10847 10847 10848 10849 10850 10852 10853 10855 10857 10858 10860 10863 10865 10867 10871 10874 10877 10880 10882 10884 10887 10891 10895 10898 10902 10906 10908 10912 10917 10921 10924 10928 10930 10933 10937 10942 10947 10950 10954 10957 10960 10963 10966 10969 10972 10973 10975 10977 10979 10981 10983 10984 10985 10987 10989 10990 10992 10993
10865 10863 10862 10861 10860 10859 10857 10856 10854 10853 10852 10852 10851 10850 10851 10851 10850 10849 10848 10848 10847 10846 10845 10844 10844 10844 10844 10843 10842 10842 10843 10844 10844 10846 10847 10848 10849 10851 10852 10854 10856 10858 10861 10863 10865 10869 10873 10875 10877 10879 10882 10886 10889 10892 10897 10901 10903 10907 10911 10914 10916 10919 10923 10927 10933 10938 10943 10947 10950 10953 10956 10959 10963 10967 10969 10970 10972 10974 10976 10978 10980 10981 10983 10985 10987 10988 10989 10991
10861 10860 10858 10857 10856 10855 10854 10853 10851 10849 10849 10847 10846 10846 10846 10846 10846 10845 10844 10844 10843 10843 10842 10840 10840 10840 10840 10839 10839 10839 10839 10840 10841 10842 10843 10844 10845 10846 10848 10850 10852 10854 10857 10858 10860 10865 10868 10869 10871 10874 10877 10880 10883 10888 10893 10896 10896 10900 10905 10908 10910 10914 10919 10925 10929 10934 10939 10943 10945 10948 10952 10956 10960 10963 10965 10967 10969 10971 10974 10975 10977 10979 10980 10982 10983 10985 10986 10988
10856 10856 10854 10853 10853 10851 10851 10849 10847 10846 10845 10844 10842 10842 10843 10842 10842 10841 10840 10839 10839 10840 10839 10837 10837 10837 10836 10836 10837 10837 10836 10837 10838 10838 10839 10840 10841 10843 10845 10847 10848 10851 10852 10853 10857 10860 10862 10864 10866 10869 10872 10874 10877 10883 10887 10889 10891 10895 10900 10904 10907 10912 10917 10921 10926 10930 10934 10938 10940 10944 10948 10952 10956 10960 10962 10964 10966 10969 10971 10973 10975 10977 10978 10980 10981 10982 10984 10985
10852 10852 10851 10850 10849 10847 10847 10846 10843 10842 10841 10839 10839 10838 10839 10838 10837 10837 10836 10835 10835 10836 10836 10835 10834 10833 10833 10833 10834 10834 10833 10833 10834 10835 10836 10837 10838 10839 10841 10843 10845 10846 10848 10850 10853 10856 10857 10858 10860 10864 10867 10870 10873 10878 10883 10886 10887 10891 10895 10899 10903 10908 10911 10915 10920 10925 10929 10933 10936 10939 10943 10947 10952 10955 10958 10961 10963 10965 10968 10970 10972 10974 10976 10978 10979 10980 10981 10982
10848 10848 10847 10845 10844 10844 10843 10842 10840 10838 10837 10835 10834 10835 10835 10835 10833 10833 10832 10831 10831 10831 10832 10832 10831 10830 10830 10830 10831 10831 10831 10831 10832 10832 10833 10834 10835 10836 10838 10839 10841 10842 10843 10846 10850 10852 10853 10853 10855 10860 10863 10866 10868 10872 10878 10881 10883 10887 10891 10895 10899 10903 10906 10910 10916 10921 10924 10928 10931 10934 10938 10943 10947 10950 10954 10957 10959 10961 10964 10966 10969 10971 10973 10975 10976 10977 10978 10980
10845 10844 10843 10841 10840 10840 10839 10838 10836 10834 10833 10831 10830 10831 10832 10831 10830 10829 10827 10828 10829 10828 10827 10827 10827 10828 10828 10827 10827 10828 10828 10828 10829 10829 10830 10831 10832 10833 10834 10835 10837 10838 10839 10843 10846 10847 10849 10850 10852 10855 10858 10861 10863 10867 10872 10875 10879 10883 10887 10891 10896 10901 10904 10907 10911 10916 10919 10922 10926 10929 10933 10938 10942 10946 10948 10952 10955 10957 10959 10962 10964 10966 10969 10972 10973 10974 10975 10977
10841 10840 10838 10836 10836 10836 10835 10834 10833 10831 10829 10826 10825 10827 10828 10828 10827 10826 10824 10824 10825 10825 10824 10823 10823 10825 10826 10824 10824 10825 10825 10825 10826 10827 10827 10828 10829 10830 10831 10832 10834 10834 10836 10840 10842 10843 10845 10847 10849 10850 10852 10855 10858 10862 10867 10870 10875 10879 10882 10888 10893 10897 10901 10903 10906 10911 10914 10917 10920 10924 10928 10932 10937 10940 10943 10946 10950 10952 10954 10957 10960 10962 10965 10968 10969 10971 10973 10974
10837 10836 10834 10831 10832 10832 10830 10830 10829 10827 10825 10822 10821 10822 10824 10823 10824 10823 10821 10819 10820 10821 10821 10820 10820 10822 10823 10821 10821 10823 10823 10823 10823 10824 10824 10825 10826 10828 10828 10829 10829 10830 10833 10836 10837 10838 10841 10844 10846 10846 10847 10850 10853 10857 10861 10865 10870 10874 10878 10883 10887 10891 10896 10900 10903 10906 10908 10911 10915 10919 10923 10928 10931 10935 10938 10941 10944 10947 10951 10954 10956 10959 10961 10963 10966 10967 10968 10970
10832 10831 10829 10826 10827 10827 10826 10825 10825 10823 10821 10818 10817 10818 10819 10819 10820 10821 10819 10816 10815 10817 10817 10817 10817 10819 10819 10818 10819 10820 10820 10820 10820 10821 10821 10822 10823 10825 10825 10825 10825 10826 10830 10833 10833 10834 10836 10840 10842 10841 10843 10846 10848 10851 10856 10860 10864 10868 10872 10876 10880 10884 10890 10894 10898 10901 10903 10906 10910 10915 10919 10923 10926 10930 10933 10936 10939 10943 10947 10950 10952 10954 10956 10959 10962 10964 10964 10967
10828 10827 10824 10821 10822 10822 10821 10820 10820 10818 10816 10814 10813 10814 10814 10815 10815 10817 10816 10812 10812 10814 10814 10814 10814 10815 10816 10816 10817 10817 10816 10817 10818 10818 10818 10819 10821 10822 10822 10821 10821 10823 10828 10830 10829 10828 10832 10836 10838 10837 10839 10842 10844 10847 10851 10854 10857 10862 10866 10870 10874 10878 10882 10886 10889 10895 10899 10902 10905 10910 10914 10918 10922 10925 10928 10933 10935 10938 10942 10945 10948 10950 10953 10956 10958 10960 10962 10964
10824 10823 10819 10815 10816 10817 10816 10815 10815 10813 10811 10809 10809 10810 10810 10810 10810 10812 10812 10809 10808 10810 10811 10810 10810 10811 10812 10813 10814 10814 10814 10814 10815 10816 10816 10817 10817 10818 10818 10819 10820 10821 10824 10825 10823 10824 10828 10832 10834 10834 10835 10837 10839 10842 10846 10848 10851 10857 10861 10865 10868 10871 10875 10878 10883 10889 10893 10894 10897 10903 10908 10913 10918 10920 10925 10930 10931 10932 10935 10939 10943 10947 10949 10952 10954 10957 10959 10961
10819 10819 10815 10810 10810 10811 10810 10809 10809 10807 10805 10804 10805 10806 10806 10806 10806 10807 10808 10805 10804 10806 10807 10807 10806 10807 10808 10810 10811 10812 10811 10811 10812 10814 10814 10814 10814 10814 10814 10816 10817 10818 10820 10820 10819 10821 10825 10827 10829 10830 10831 10832 10835 10837 10841 10843 10847 10851 10855 10859 10862 10865 10870 10874 10879 10883 10886 10887 10892 10896 10901 10907 10911 10915 10920 10924 10925 10926 10929 10933 10937 10941 10944 10946 10948 10952 10955 10958
10814 10814 10811 10807 10805 10803 10803 10804 10803 10801 10800 10800 10801 10801 10801 10801 10801 10802 10803 10801 10800 10801 10803 10803 10802 10802 10804 10807 10808 10808 10807 10808 10809 10811 10812 10811 10811 10811 10811 10812 10813 10815 10816 10816 10816 10819 10822 10822 10823 10826 10827 10828 10830 10833 10836 10839 10842 10845 10849 10854 10857 10861 10865 10869 10873 10878 10881 10884 10888 10891 10896 10901 10903 10907 10913 10917 10918 10921 10924 10926 10930 10935 10939 10940 10942 10946 10951 10954
10808 10809 10807 10804 10798 10795 10796 10798 10798 10796 10795 10796 10797 10797 10796 10795 10796 10797 10798 10798 10797 10797 10798 10799 10798 10798 10800 10803 10804 10803 10803 10805 10807 10808 10809 10808 10808 10808 10808 10808 10810 10811 10813 10813 10813 10816 10818 10816 10818 10821 10822 10824 10827 10829 10831 10835 10838 10840 10844 10848 10852 10856 10859 10862 10866 10871 10876 10880 10884 10886 10890 10893 10894 10899 10905 10907 10910 10914 10918 10921 10924 10929 10933 10934 10936 10941 10946 10949
10801 10802 10802 10799 10793 10789 10790 10793 10793 10791 10790 10790 10791 10791 10790 10789 10789 10791 10793 10793 10794 10793 10792 10794 10795 10794 10795 10799 10800 10799 10799 10801 10803 10805 10806 10805 10805 10805 10804 10805 10807 10808 10810 10810 10810 10812 10813 10812 10814 10817 10818 10820 10823 10825 10827 10830 10833 10836 10839 10843 10846 10850 10853 10855 10859 10865 10870 10875 10879 10881 10883 10884 10886 10891 10896 10899 10903 10908 10912 10916 10919 10924 10928 10929 10931 10936 10941 10944
10794 10795 10795 10793 10789 10785 10785 10787 10786 10785 10784 10784 10785 10785 10785 10782 10781 10784 10787 10788 10788 10788 10788 10789 10790 10790 10791 10794 10795 10794 10794 10796 10798 10800 10802 10802 10802 10802 10800 10801 10803 10805 10807 10806 10806 10808 10809 10809 10811 10813 10814 10816 10819 10821 10823 10826 10829 10832 10834 10837 10841 10844 10847 10850 10854 10859 10865 10869 10871 10872 10875 10878 10880 10884 10889 10893 10897 10902 10906 10911 10916 10921 10924 10924 10926 10931 10936 10939
10787 10787 10787 10787 10785 10781 10779 10780 10780 10778 10778 10778 10778 10779 10778 10776 10775 10778 10781 10781 10783 10784 10784 10784 10785 10786 10787 10789 10789 10790 10790 10791 10793 10795 10796 10798 10798 10798 10798 10798 10799 10801 10802 10803 10803 10804 10805 10806 10807 10809 10811 10812 10814 10817 10819 10821 10824 10827 10829 10832 10836 10839 10841 10845 10848 10853 10857 10861 10863 10864 10867 10870 10872 10876 10883 10887 10891 10895 10900 10905 10911 10917 10920 10920 10922 10926 10931 10936
10780 10780 10778 10779 10779 10776 10772 10773 10774 10771 10771 10772 10771 10771 10770 10770 10771 10773 10774 10776 10778 10779 10779 10779 10780 10782 10783 10784 10785 10786 10785 10786 10788 10789 10791 10793 10794 10794 10795 10795 10795 10796 10798 10799 10801 10800 10801 10803 10805 10806 10807 10808 10810 10812 10814 10816 10820 10822 10825 10828 10831 10834 10837 10839 10843 10846 10850 10853 10855 10857 10859 10863 10866 10870 10876 10880 10884 10889 10893 10898 10904 10910 10915 10917 10919 10923 10928 10933
10772 10772 10771 10770 10770 10769 10766 10765 10766 10765 10765 10765 10764 10762 10763 10765 10765 10766 10769 10771 10772 10772 10774 10774 10775 10777 10778 10779 10781 10782 10781 10781 10783 10785 10786 10788 10789 10790 10791 10791 10790 10792 10794 10795 10796 10796 10798 10800 10801 10802 10803 10804 10805 10807 10809 10812 10815 10818 10820 10823 10826 10829 10831 10834 10837 10840 10843 10847 10850 10852 10854 10857 10859 10863 10868 10872 10877 10883 10887 10891 10897 10903 10910 10914 10916 10920 10925 10930
10764 10763 10763 10761 10761 10762 10760 10758 10758 10758 10757 10757 10756 10755 10756 10758 10758 10761 10765 10767 10766 10767 10769 10770 10771 10773 10774 10775 10777 10777 10776 10777 10779 10781 10782 10783 10784 10786 10786 10786 10787 10789 10790 10790 10791 10793 10794 10796 10797 10797 10798 10800 10801 10802 10804 10807 10810 10813 10816 10819 10821 10823 10826 10829 10832 10834 10838 10842 10845 10847 10849 10851 10853 10857 10861 10865 10870 10875 10880 10886 10891 10896 10903 10908 10912 10917 10921 10927
10756 10754 10754 10753 10752 10753 10753 10751 10750 10749 10748 10749 10750 10750 10750 10751 10754 10757 10760 10761 10761 10763 10766 10767 10768 10770 10770 10771 10771 10771 10772 10774 10775 10777 10779 10779 10780 10781 10781 10783 10784 10784 10784 10785 10787 10789 10791 10792 10793 10794 10795 10797 10797 10798 10800 10802 10806 10809 10811 10814 10816 10818 10821 10825 10828 10829 10832 10837 10840 10842 10844 10846 10847 10850 10854 10859 10865 10870 10875 10881 10886 10890 10896 10901 10905 10910 10916 10922
10749 10746 10745 10744 10743 10744 10745 10744 10742 10740 10740 10742 10743 10744 10744 10745 10748 10751 10753 10755 10756 10758 10762 10764 10764 10763 10763 10764 10765 10766 10768 10771 10773 10774 10775 10775 10776 10777 10778 10779 10780 10779 10780 10783 10784 10786 10787 10788 10789 10790 10792 10792 10793 10794 10796 10798 10801 10804 10806 10809 10811 10814 10818 10821 10822 10824 10827 10831 10835 10837 10839 10840 10841 10844 10847 10852 10859 10864 10870 10876 10880 10884 10889 10893 10897 10902 10908 10914